• In Netherlands
  • List of Countries
  • For 7 days
  • Water Temperature
  • Satellite Maps
  • Weather Map
  • Weather Widgets
  • user-avatar
    Login

    Hourly Weather Ischgl

    Today, 27 April, Friday

    Time Temperature Precipitation Wind Pressure Humidity
    00:00 -1°C° 0 mm 1 mps 572 mmHg 91%
    01:00 -2°C° 0 mm 1 mps 571 mmHg 88%
    02:00 -2°C° 0 mm 1 mps 571 mmHg 87%
    03:00 -4°C° 0 mm 2 mps 571 mmHg 87%
    04:00 -4°C° 0 mm 2 mps 571 mmHg 87%
    05:00 -2°C° 0 mm 2 mps 572 mmHg 87%
    06:00 -1°C° 0 mm 2 mps 572 mmHg 86%
    07:00 +1°C° 0 mm 2 mps 572 mmHg 86%
    08:00 +3°C° 0 mm 2 mps 573 mmHg 83%
    09:00 +3°C° 0 mm 3 mps 573 mmHg 80%
    10:00 +5°C° 0 mm 3 mps 574 mmHg 77%
    11:00 +7°C° 0.1 mm 3 mps 574 mmHg 75%
    12:00 +7°C° 0.1 mm 3 mps 574 mmHg 74%
    13:00 +8°C° 0.1 mm 3 mps 575 mmHg 73%
    14:00 +8°C° 0.1 mm 3 mps 574 mmHg 74%
    15:00 +8°C° 0.1 mm 3 mps 574 mmHg 74%
    16:00 +7°C° 0.1 mm 3 mps 574 mmHg 75%
    17:00 +6°C° 0.2 mm 2 mps 573 mmHg 80%
    18:00 +5°C° 0.2 mm 2 mps 573 mmHg 85%
    19:00 +3°C° 0.2 mm 2 mps 572 mmHg 89%
    20:00 +3°C° 0.1 mm 2 mps 572 mmHg 90%
    21:00 +2°C° 0.1 mm 2 mps 572 mmHg 91%
    22:00 +1°C° 0.1 mm 2 mps 572 mmHg 92%
    23:00 +1°C° 0 mm 2 mps 572 mmHg 92%

    Tomorrow, 28 April, Saturday

    Time Temperature Precipitation Wind Pressure Humidity
    00:00 -1°C° 0 mm 2 mps 572 mmHg 92%
    01:00 -1°C° 0 mm 2 mps 572 mmHg 92%
    02:00 -1°C° 0 mm 2 mps 572 mmHg 91%
    03:00 -2°C° 0 mm 2 mps 572 mmHg 91%
    04:00 -2°C° 0 mm 2 mps 571 mmHg 90%
    05:00 -1°C° 0 mm 2 mps 572 mmHg 88%
    06:00 +1°C° 0 mm 2 mps 572 mmHg 86%
    07:00 +2°C° 0 mm 2 mps 573 mmHg 84%
    08:00 +4°C° 0 mm 2 mps 573 mmHg 78%
    09:00 +5°C° 0 mm 2 mps 574 mmHg 73%
    10:00 +7°C° 0 mm 2 mps 575 mmHg 67%
    11:00 +8°C° 0 mm 2 mps 575 mmHg 64%
    12:00 +9°C° 0 mm 3 mps 575 mmHg 61%
    13:00 +9°C° 0 mm 3 mps 575 mmHg 57%
    14:00 +9°C° 0.1 mm 3 mps 575 mmHg 59%
    15:00 +9°C° 0.1 mm 3 mps 575 mmHg 61%
    16:00 +9°C° 0.1 mm 3 mps 574 mmHg 63%
    17:00 +7°C° 0.3 mm 3 mps 574 mmHg 69%
    18:00 +5°C° 0.3 mm 3 mps 573 mmHg 75%
    19:00 +4°C° 0.3 mm 2 mps 572 mmHg 81%
    20:00 +3°C° 0.1 mm 2 mps 572 mmHg 84%
    21:00 +2°C° 0.1 mm 3 mps 572 mmHg 86%
    22:00 +1°C° 0.1 mm 3 mps 572 mmHg 88%
    23:00 +1°C° 0 mm 3 mps 572 mmHg 88%

    Day after tomorrow, 29 April, Sunday

    Time Temperature Precipitation Wind Pressure Humidity
    00:00 +1°C° 0 mm 3 mps 571 mmHg 89%
    01:00 +1°C° 0 mm 3 mps 571 mmHg 89%
    02:00 0°C° 0 mm 3 mps 571 mmHg 89%
    03:00 0°C° 0 mm 3 mps 571 mmHg 89%
    04:00 0°C° 0 mm 3 mps 571 mmHg 89%
    05:00 +1°C° 0 mm 3 mps 571 mmHg 86%
    06:00 +1°C° 0 mm 3 mps 571 mmHg 84%
    07:00 +2°C° 0 mm 3 mps 571 mmHg 82%
    08:00 +4°C° 0 mm 3 mps 572 mmHg 74%
    09:00 +7°C° 0 mm 3 mps 573 mmHg 66%
    10:00 +9°C° 0 mm 3 mps 573 mmHg 59%
    11:00 +8°C° 0.1 mm 4 mps 573 mmHg 57%
    12:00 +10°C° 0.1 mm 4 mps 573 mmHg 55%
    13:00 +10°C° 0.1 mm 4 mps 573 mmHg 53%
    14:00 +10°C° 0.1 mm 4 mps 572 mmHg 53%
    15:00 +9°C° 0.1 mm 5 mps 572 mmHg 53%
    16:00 +9°C° 0.1 mm 5 mps 571 mmHg 53%
    17:00 +7°C° 0 mm 5 mps 570 mmHg 59%
    18:00 +6°C° 0 mm 4 mps 569 mmHg 65%
    19:00 +4°C° 0 mm 4 mps 568 mmHg 71%
    20:00 +3°C° 0.2 mm 4 mps 568 mmHg 75%
    21:00 +1°C° 0.2 mm 4 mps 567 mmHg 79%
    22:00 0°C° 0.2 mm 4 mps 567 mmHg 83%
    23:00 0°C° 1.2 mm 4 mps 567 mmHg 87%

    30 April, Monday

    Time Temperature Precipitation Wind Pressure Humidity
    00:00 -1°C° 1.2 mm 4 mps 568 mmHg 90%
    01:00 0°C° 1.2 mm 3 mps 568 mmHg 94%
    02:00 -1°C° 0.8 mm 3 mps 568 mmHg 94%
    03:00 -1°C° 0.8 mm 3 mps 568 mmHg 94%
    04:00 -2°C° 0.8 mm 2 mps 568 mmHg 95%
    05:00 -2°C° 0.1 mm 2 mps 568 mmHg 91%
    06:00 -2°C° 0.1 mm 2 mps 568 mmHg 88%
    07:00 -2°C° 0.1 mm 2 mps 568 mmHg 85%
    08:00 0°C° 0 mm 3 mps 569 mmHg 77%
    09:00 +1°C° 0 mm 3 mps 570 mmHg 70%
    10:00 +2°C° 0 mm 3 mps 571 mmHg 62%
    11:00 +3°C° 0 mm 3 mps 571 mmHg 59%
    12:00 +4°C° 0 mm 3 mps 571 mmHg 55%
    13:00 +5°C° 0 mm 3 mps 572 mmHg 52%
    14:00 +4°C° 0 mm 3 mps 572 mmHg 53%
    15:00 +4°C° 0 mm 3 mps 571 mmHg 54%
    16:00 +4°C° 0 mm 3 mps 571 mmHg 54%
    17:00 +4°C° 0 mm 2 mps 571 mmHg 62%
    18:00 +3°C° 0 mm 2 mps 571 mmHg 70%
    19:00 +1°C° 0 mm 2 mps 570 mmHg 78%
    20:00 -1°C° 0 mm 2 mps 570 mmHg 82%
    21:00 +1°C° 0 mm 1 mps 570 mmHg 86%
    22:00 0°C° 0 mm 1 mps 570 mmHg 90%
    23:00 0°C° 0 mm 1 mps 570 mmHg 90%

    1 May, Tuesday

    Time Temperature Precipitation Wind Pressure Humidity
    00:00 -1°C° 0 mm 1 mps 570 mmHg 90%
    01:00 -3°C° 0 mm 2 mps 570 mmHg 90%
    02:00 -3°C° 0 mm 2 mps 570 mmHg 90%
    03:00 -1°C° 0 mm 1 mps 570 mmHg 90%
    04:00 -1°C° 0 mm 1 mps 570 mmHg 90%
    05:00 -1°C° 0 mm 1 mps 570 mmHg 86%
    06:00 -2°C° 0 mm 2 mps 570 mmHg 81%
    07:00 -1°C° 0 mm 2 mps 571 mmHg 77%
    08:00 +1°C° 0 mm 2 mps 571 mmHg 70%
    09:00 +2°C° 0 mm 2 mps 572 mmHg 63%
    10:00 +3°C° 0 mm 2 mps 573 mmHg 57%
    11:00 +4°C° 0 mm 2 mps 573 mmHg 56%
    12:00 +5°C° 0 mm 2 mps 573 mmHg 56%
    13:00 +5°C° 0 mm 2 mps 573 mmHg 55%
    14:00 +5°C° 0.1 mm 2 mps 573 mmHg 60%
    15:00 +5°C° 0.1 mm 2 mps 573 mmHg 64%
    16:00 +4°C° 0.1 mm 2 mps 572 mmHg 69%
    17:00 +3°C° 0.5 mm 2 mps 572 mmHg 76%
    18:00 +2°C° 0.5 mm 2 mps 572 mmHg 84%
    19:00 +2°C° 0.5 mm 1 mps 571 mmHg 91%
    20:00 +2°C° 0.6 mm 1 mps 571 mmHg 92%
    21:00 +2°C° 0.6 mm 1 mps 571 mmHg 94%
    22:00 +1°C° 0.6 mm 1 mps 571 mmHg 95%
    23:00 +1°C° 0.1 mm 1 mps 571 mmHg 95%

    2 May, Wednesday

    Time Temperature Precipitation Wind Pressure Humidity
    00:00 +1°C° 0.1 mm 1 mps 571 mmHg 95%
    01:00 0°C° 0.1 mm 1 mps 570 mmHg 95%
    02:00 0°C° 0.1 mm 1 mps 570 mmHg 95%
    03:00 0°C° 0.1 mm 1 mps 570 mmHg 94%
    04:00 0°C° 0.1 mm 1 mps 570 mmHg 93%
    05:00 0°C° 0.1 mm 1 mps 570 mmHg 91%
    06:00 +1°C° 0.1 mm 1 mps 570 mmHg 89%
    07:00 +2°C° 0.1 mm 1 mps 570 mmHg 86%
    08:00 +2°C° 0 mm 2 mps 571 mmHg 81%
    09:00 +4°C° 0 mm 2 mps 572 mmHg 76%
    10:00 +5°C° 0 mm 2 mps 572 mmHg 71%
    11:00 +6°C° 0.2 mm 2 mps 572 mmHg 70%
    12:00 +6°C° 0.2 mm 2 mps 572 mmHg 70%
    13:00 +6°C° 0.2 mm 2 mps 572 mmHg 69%
    14:00 +6°C° 0.2 mm 2 mps 572 mmHg 71%
    15:00 +6°C° 0.2 mm 2 mps 572 mmHg 72%
    16:00 +6°C° 0.2 mm 2 mps 572 mmHg 74%
    17:00 +5°C° 0.3 mm 2 mps 571 mmHg 80%
    18:00 +4°C° 0.3 mm 2 mps 571 mmHg 86%
    19:00 +4°C° 0.3 mm 1 mps 570 mmHg 92%
    20:00 +4°C° 0.3 mm 1 mps 570 mmHg 94%
    21:00 +3°C° 0.3 mm 1 mps 570 mmHg 95%
    22:00 +3°C° 0.3 mm 1 mps 570 mmHg 96%
    23:00 +2°C° 0.1 mm 1 mps 570 mmHg 95%
    Show more